Regional Weather Roundup
Issued by NWS

Home | Current Version | Previous Version | Graphics & Text | Print | Product List | Glossary Off
Versions: 1 2 3 4 5 6 7 8 9 10 11 12 13 14 15 16 17 18 19 20 21 22 23 24 25 26 27 28 29 30 31 32 33 34 35 36 37 38 39 40 41 42 43 44 45 46 47 48 49 50

000
ASUS43 KMPX 211701
RWRMN
WEATHER ROUNDUP FOR MINNESOTA
NATIONAL WEATHER SERVICE TWIN CITIES/CHANHASSEN MN
1200 PM CDT SAT APR 21 2018


NOTE: "FAIR" INDICATES FEW OR NO CLOUDS BELOW 12,000 FEET WITH NO
SIGNIFICANT WEATHER AND/OR OBSTRUCTIONS TO VISIBILITY. N/A MEANS
CURRENT SKY AND/OR WEATHER CONDITIONS ARE NOT AVAILABLE.

MNZ060>063-068>070-211800-
   Twin Cities Metro

CITY           SKY/WX    TMP DP  RH WIND       PRES   REMARKS
TWIN CITIES    FAIR      52  22  30 SE5       30.41F
ST PAUL        FAIR      52  20  28 VRB5      30.42F
CRYSTAL        FAIR      51  20  29 SE3       30.40F
BLAINE         MOSUNNY   52  19  28 CALM      30.41F
LAKEVILLE      FAIR      46  30  53 CALM      30.42S
EDEN PRAIRIE   FAIR      51  27  39 SE5       30.40F
SOUTH ST PAUL  FAIR      52  24  33 CALM      30.41F
LAKE ELMO      FAIR      50  28  43 CALM      30.42F
$$
MNZ001>005-007-008-013>017-022>024-027-028-211800-
   Northwest Minnesota

CITY           SKY/WX    TMP DP  RH WIND       PRES   REMARKS
BEMIDJI        FAIR      53  32  44 SW5       30.35F
HALLOCK        FAIR      54  45  71 S13G20    30.30F
ROSEAU         FAIR      55  43  62 S13       30.33F
WARROAD        FAIR      55  41  58 S7        30.33F
THIEF RVR FALL FAIR      53  40  61 S12G18    30.35F
CROOKSTON      FAIR      48  43  81 SW9       30.35S
FOSSTON        FAIR      54  36  50 S8        30.36S
DETROIT LAKES  FAIR      54  32  43 SW7       30.36F
MOORHEAD       FAIR      54  39  58 S8        30.36F
PARK RAPIDS    FAIR      52  30  43 S7        30.36F
MAHNOMEN       FAIR      52  37  56 SW6       30.36S
$$
MNZ006-009>011-018-025>026-211800-
   North Central Minnesota

CITY           SKY/WX    TMP DP  RH WIND       PRES   REMARKS
BAUDETTE       FAIR      55  29  36 S14G21    30.34F
FLAG ISLAND    FAIR      41  30  65 SE9       30.33F
INTL FALLS     FAIR      56  27  32 VRB5      30.34F
WASKISH        CLOUDY    50  34  53 W8        30.36S
BIG FORK       FAIR      55  28  35 S5        30.36F
LONGVILLE      FAIR      54  25  32 S5        30.38S
GRAND RAPIDS   FAIR      51  25  36 S3        30.39F
CRANE LAKE     FAIR      54  21  28 CALM      30.37F
ORR            FAIR      55  19  24 CALM      30.33F
COOK           FAIR      55  27  33 CALM      30.36F
WALKER         FAIR      51  30  45 E7        30.37S
$$
MNZ012-019>021-037-211800-
   Northeast Minnesota

CITY           SKY/WX    TMP DP  RH WIND       PRES   REMARKS
DULUTH         FAIR      53  21  28 SW3       30.38S
ELY            FAIR      54  19  26 CALM      30.35F
HIBBING        FAIR      53  23  31 VRB6      30.36F
EVELETH        FAIR      55  23  29 SE7       30.37F
DULUTH HARBOR  FAIR      50  28  43 NE3       30.40F
TWO HARBORS    FAIR      59  34  38 SE9       30.37S
SILVER BAY     FAIR      57  25  28 SE6       30.36S
GRAND MARAIS     N/A     37  32  82 SW6       30.39F
G MARAIS ARPRT FAIR      52  19  28 SE6       30.37S
$$
MNZ029>031-032-039>041-046>048-054>057-064-211800-
   West Central Minnesota

CITY           SKY/WX    TMP DP  RH WIND       PRES   REMARKS
FERGUS FALLS   FAIR      54  36  50 S9        30.35F
WHEATON        CLOUDY    54  37  54 S7        30.39S
MORRIS         CLOUDY    52  37  58 SE10      30.37F
ALEXANDRIA     FAIR      55  30  38 SW9       30.39F
ELBOW LAKE     FAIR      54  35  48 S10G17    30.38S
WADENA         FAIR      54  30  40 SE5       30.37F
GLENWOOD       FAIR      54  30  40 SE5       30.39F
APPLETON       CLOUDY    52  28  40 S8        30.38F
BENSON         CLOUDY    52  36  54 S7        30.40F
ORTONVILLE     MOSUNNY   52  37  58 SE6       30.37F
MADISON        CLOUDY    48  39  71 SE6       30.38F
WILLMAR        FAIR      48  36  61 SE7       30.42F
$$
MNZ033>034-036-042>043-049>051-058-059-211800-
   Central Minnesota

CITY           SKY/WX    TMP DP  RH WIND       PRES   REMARKS
ST CLOUD       FAIR      50  23  34 VRB3      30.40F
SAUK CENTRE    FAIR      50  32  49 S5        30.40F
PAYNESVILLE    FAIR      50  31  47 S5        30.41S
AITKIN         FAIR      52  23  32 S5        30.37F
PINE RIVER     FAIR      48  28  46 SE6       30.40F
BRAINERD       FAIR      52  26  36 VRB5      30.39F
STAPLES        FAIR      52  30  43 W3        30.39S
LONG PRAIRIE   FAIR      50  30  46 CALM      30.40S
LITTLE FALLS   FAIR      50  19  29 S5        30.41S
LITCHFIELD     FAIR      52  30  43 CALM      30.41F
BUFFALO        FAIR      50  25  37 E3        30.42F
MAPLE LAKE     FAIR      50  29  43 CALM      30.42F
HUTCHINSON     FAIR      48  33  54 E6        30.42F
$$
MNZ037-044-045-052-053-211800-
   East Central Minnesota

CITY           SKY/WX    TMP DP  RH WIND       PRES   REMARKS
PRINCETON      FAIR      54  27  35 NW5       30.41F
MORA           FAIR      50  25  37 S6        30.42F
CAMBRIDGE      FAIR      54  32  43 CALM      30.42F
RUSH CITY      FAIR      50  23  34 S5        30.42S
MOOSE LAKE     FAIR      52  23  32 E3        30.38F
HINCKLEY       FAIR      52  23  32 S3        30.40F
CLOQUET        FAIR      54  16  22 W5        30.38S
MCGREGOR       FAIR      54  27  35 SE3       30.38F
$$
MNZ071>073-080-081-089-090-097-098-211800-
   Southwest Minnesota

CITY           SKY/WX    TMP DP  RH WIND       PRES   REMARKS
MONTEVIDEO     MOSUNNY   52  34  50 S7        30.39F
GRANITE FALLS  MOSUNNY   50  35  56 SE8       30.40F
CANBY          CLOUDY    45  35  68 SE5       30.39F
MARSHALL       CLOUDY    44  31  60 S6        30.39
REDWOOD FALLS  CLOUDY    47  30  51 E8        30.39F
OLIVIA         MOSUNNY   50  32  50 E6        30.38F
PIPESTONE      CLOUDY   N/A N/A N/A SE6       30.36S
WINDOM         CLOUDY    43  23  45 NE6       30.38S
WORTHINGTON    CLOUDY    41  33  73 NE3       30.38S
JACKSON        CLOUDY    37  32  81 NE3       30.38S
TRACY          CLOUDY    43  35  73 CALM      30.38F
SLAYTON        CLOUDY    40  29  67 E6        30.38S
$$
MNZ065>067-074>077-082>085-091>093-211800-
   South Central Minnesota

CITY           SKY/WX    TMP DP  RH WIND       PRES   REMARKS
MANKATO        FAIR      48  28  46 E6        30.41F
NEW ULM        CLOUDY    45  23  42 E8        30.39F
ST JAMES       CLOUDY    39  32  75 N3        30.40F
FAIRMONT       CLOUDY    40  28  62 E5        30.39F
GLENCOE        FAIR      48  27  44 E5        30.40F
OWATONNA       PTSUNNY   48  34  57 NE5       30.40F
WASECA         CLOUDY    45  34  65 NE6       30.41F
ALBERT LEA     PTSUNNY   45  28  53 SE5       30.40R
$$
MNZ078>079-086>088-094>096-211800-
   Southeast Minnesota

CITY           SKY/WX    TMP DP  RH WIND       PRES   REMARKS
ROCHESTER      PTSUNNY   50  35  56 S8        30.41R
RED WING       FAIR      54  18  24 S6        30.41F
STANTON        PTSUNNY   50  33  51 CALM      30.40F
DODGE CENTER   FAIR      48  34  57 E3        30.40F
WINONA         CLOUDY    48  32  53 CALM      30.40S
AUSTIN         CLOUDY    45  30  57 SE5       30.40S
PRESTON        CLOUDY    47  30  50 S6        30.41S
$$
ABBREVIATIONS USED IN REMARKS
   TC - TEMPERATURES IN CELSIUS
  WCI - WIND CHILL INDEX
   HX - HEAT INDEX
  VSB - VISIBILITY
$$



USA.gov is the U.S. government's official web portal to all federal, state and local government web resources and services.